Location: Memmingen
(47.9830°N, 10.1733°E)
Time: 01:14:15
(UTC+02:00)

ISS - Visible Passes

Search period start: 22 October 2019 00:00
Search period end: 31 October 2019 23:00
Orbit: 411 x 421 km, 51.6° (Epoch: 21 October)

Date Brightness Start Highest point End Pass type
(mag) Time Alt. Az. Time Alt. Az. Time Alt. Az.
24 Oct -0.8 06:49:32 10° S 06:51:42 16° SE 06:53:52 10° E visible
25 Oct -0.4 06:03:07 10° SE 06:03:20 10° SE 06:03:32 10° SE visible
26 Oct -2.2 06:47:48 10° SSW 06:50:55 35° SE 06:54:01 10° ENE visible
27 Oct -1.6 05:00:46 16° S 05:02:26 23° SE 05:05:10 10° E visible
28 Oct -0.9 04:14:37 14° ESE 04:14:37 14° ESE 04:16:00 10° E visible
28 Oct -3.6 05:47:32 15° WSW 05:50:16 75° SSE 05:53:37 10° ENE visible
29 Oct -3.2 05:01:15 46° S 05:01:40 50° SSE 05:04:56 10° ENE visible
30 Oct -1.1 04:14:49 20° E 04:14:49 20° E 04:16:10 10° E visible
30 Oct -3.7 05:47:44 22° W 05:49:42 63° NNW 05:53:03 10° ENE visible
31 Oct -3.7 05:01:13 76° NE 05:01:13 76° NE 05:04:23 10° ENE visible
